This is the latest recevied weather packets stored in our database for station/object EA1IXY-2. If no packets are shown the sender has not sent any weather packets the latest 1 day(s).
| Time | Temp. | Humidity | Pressure | Rain* | Wind** | Luminosity | Snow |
|---|---|---|---|---|---|---|---|
| 1778077984 | 38.33° C | 15% | 926.5 hPa | - | - | - | - |
| 1778077084 | 38.33° C | 16% | 926.5 hPa | - | - | - | - |
| 1778069871 | 38.33° C | 15% | 927.6 hPa | - | - | - | - |
| 1778068971 | 38.33° C | 15% | 927.7 hPa | - | - | - | - |
| 1778068071 | 38.33° C | 16% | 927.9 hPa | - | - | - | - |
| 1778060858 | 38.89° C | 14% | 928.5 hPa | - | - | - | - |
| 1778059958 | 38.89° C | 14% | 928.5 hPa | - | - | - | - |
| 1778058158 | 38.89° C | 14% | 928.2 hPa | - | - | - | - |
| 1778057258 | 38.33° C | 14% | 928 hPa | - | - | - | - |
| 1778056358 | 38.89° C | 14% | 928.5 hPa | - | - | - | - |
| 1778052757 | 32.78° C | 15% | 927.2 hPa | - | - | - | - |
| 1778049145 | 37.78° C | 17% | 928.3 hPa | - | - | - | - |
| 1778048245 | 38.33° C | 18% | 928.4 hPa | - | - | - | - |
| 1778046445 | 37.78° C | 17% | 928.3 hPa | - | - | - | - |
| 1778045545 | 38.33° C | 17% | 928.3 hPa | - | - | - | - |
| 1778044645 | 37.78° C | 17% | 928.2 hPa | - | - | - | - |
| 1778043744 | 37.78° C | 18% | 928.3 hPa | - | - | - | - |
| 1778041944 | 36.67° C | 18% | 926.9 hPa | - | - | - | - |
| 1778039232 | 37.78° C | 17% | 928.4 hPa | - | - | - | - |
| 1778038332 | 37.78° C | 18% | 928.6 hPa | - | - | - | - |
| 1778037432 | 38.33° C | 18% | 928.7 hPa | - | - | - | - |
| 1778036532 | 37.78° C | 18% | 928.6 hPa | - | - | - | - |
| 1778035632 | 37.22° C | 18% | 928.6 hPa | - | - | - | - |
| 1778034732 | 37.78° C | 18% | 928.5 hPa | - | - | - | - |
| 1778033832 | 37.78° C | 18% | 928.8 hPa | - | - | - | - |
* Rain since midnight (hover to see other rain measurements)
** Current wind speed in m/s (hover to see current wind gust speed)